GW4477 Weather Reports


time (UTC)temp
F
wind
direction
speed
knots
gust
knots
rain 1hr
in
rain 24hr
in
rain mn
in
humidity
%
barometer
mb
20260904144527 80 252 2.6 8.7 0.00 0.00 0.00 73 1015.2
20260904143033 79 242 4.3 10.4 0.00 0.00 0.00 75 1015.4
20260904141520 78 360 2.6 7.0 0.00 0.00 0.00 78 1015.4
20260904140025 76 360 3.5 7.8 0.00 0.00 0.00 79 1015.5
20260904134503 75 360 4.3 7.8 0.00 0.00 0.00 80 1015.4
20260904133006 74 178 2.6 7.0 0.00 0.00 0.00 82 1015.2
20260904131513 72 360 1.7 3.5 0.00 0.00 0.00 82 1015.1
20260904130032 71 360 1.7 4.3 0.00 0.00 0.00 83 1015.0
20260904124523 70 194 1.7 5.2 0.00 0.00 0.00 82 1014.7
20260904123006 70 360 2.6 7.0 0.00 0.00 0.00 82 1014.6
20260904121518 70 360 2.6 5.2 0.00 0.00 0.00 81 1014.5
20260904120019 70 360 1.7 4.3 0.00 0.00 0.00 80 1014.4
20260904114520 71 360 0.9 4.3 0.00 0.00 0.00 78 1014.3
20260904113032 71 194 1.7 5.2 0.00 0.00 0.00 77 1014.3
20260904111511 72 360 1.7 5.2 0.00 0.00 0.00 76 1014.4
20260904110012 72 186 2.6 7.0 0.00 0.00 0.00 75 1014.3
20260904104520 73 360 3.5 7.0 0.00 0.00 0.00 73 1014.3
20260904103028 73 360 2.6 8.7 0.00 0.00 0.00 72 1014.2
20260904101531 73 194 2.6 7.0 0.00 0.00 0.00 71 1014.1
20260904100014 73 360 2.6 5.2 0.00 0.00 0.00 71 1014.1
20260904094516 74 175 2.6 5.2 0.00 0.00 0.00 70 1014.0
20260904093023 74 167 2.6 5.2 0.00 0.00 0.00 69 1014.0
20260904091530 74 360 2.6 5.2 0.00 0.00 0.00 68 1014.0
20260904090012 75 175 1.7 5.2 0.00 0.00 0.00 66 1014.1
20260904084514 75 194 1.7 5.2 0.00 0.00 0.00 65 1014.1
20260904083027 76 360 3.5 5.2 0.00 0.00 0.00 63 1014.1
20260904081529 77 173 2.6 6.1 0.00 0.00 0.00 62 1014.4
20260904080033 77 188 2.6 7.0 0.00 0.00 0.00 61 1014.3
20260904074519 77 360 2.6 7.0 0.00 0.00 0.00 60 1014.1
20260904073020 77 226 2.6 7.8 0.00 0.00 0.00 59 1014.0
20260904071527 78 360 3.5 7.0 0.00 0.00 0.00 58 1014.0
20260904070029 78 360 3.5 7.0 0.00 0.00 0.00 57 1014.0
20260904064532 77 194 2.6 7.8 0.00 0.00 0.00 58 1014.1
20260904063021 77 360 4.3 8.7 0.00 0.00 0.00 58 1014.0
20260904061526 77 171 3.5 7.0 0.00 0.00 0.00 58 1014.0
20260904060030 77 360 2.6 7.0 0.00 0.00 0.00 57 1013.9
20260904054532 78 360 4.3 7.8 0.00 0.00 0.00 55 1013.8
20260904053035 78 111 3.5 7.0 0.00 0.00 0.00 53 1013.5
20260904051505 76 360 2.6 7.0 0.00 0.00 0.00 57 1013.3
20260904050004 77 182 0.9 3.5 0.00 0.00 0.00 56 1013.3
20260904044504 77 159 0.9 3.5 0.00 0.00 0.00 55 1013.3
20260904043004 78 168 0.9 2.6 0.00 0.00 0.00 54 1013.1
20260904041503 80 171 0.9 2.6 0.00 0.00 0.00 52 1013.0
20260904040013 80 214 0.9 3.5 0.00 0.00 0.00 51 1012.9
20260904034511 81 360 1.7 4.3 0.00 0.00 0.00 50 1012.9
20260904033009 81 185 1.7 3.5 0.00 0.00 0.00 49 1012.8
20260904031508 82 195 2.6 5.2 0.00 0.00 0.00 46 1012.7
20260904030004 83 360 2.6 5.2 0.00 0.00 0.00 44 1012.5
20260904024506 83 190 2.6 7.0 0.00 0.00 0.00 43 1012.4
20260904023007 84 360 2.6 5.2 0.00 0.00 0.00 40 1012.4
20260904021511 85 163 2.6 4.3 0.00 0.00 0.00 37 1012.1
20260904020010 84 150 2.6 4.3 0.00 0.00 0.00 36 1012.0
20260904014502 86 178 1.7 3.5 0.00 0.00 0.00 34 1011.8
20260904013010 88 165 0.0 3.5 0.00 0.00 0.00 33 1011.7
20260904011511 90 148 0.9 2.6 0.00 0.00 0.00 31 1011.5
20260904010034 92 162 0.9 3.5 0.00 0.00 0.00 28 1011.4
20260904004514 94 157 1.7 4.3 0.00 0.00 0.00 26 1011.4
20260904003009 96 144 2.6 5.2 0.00 0.00 0.00 24 1011.3
20260904001513 97 142 5.2 8.7 0.00 0.00 0.00 23 1011.4
20260904000023 98 205 2.6 7.0 0.00 0.00 0.00 24 1011.4
20260903234517 99 173 2.6 8.7 0.00 0.00 0.00 24 1011.5
20260903233018 99 197 4.3 8.7 0.00 0.00 0.00 24 1011.4
20260903231509 99 155 3.5 10.4 0.00 0.00 0.00 25 1011.3
20260903230021 99 136 4.3 8.7 0.00 0.00 0.00 26 1011.2
20260903224518 100 215 4.3 8.7 0.00 0.00 0.00 25 1011.3
20260903223030 100 189 3.5 9.6 0.00 0.00 0.00 24 1011.4
20260903221520 100 179 4.3 10.4 0.00 0.00 0.00 23 1011.4
20260903220014 101 144 4.3 7.8 0.00 0.00 0.00 22 1011.6
20260903214520 101 256 2.6 6.1 0.00 0.00 0.00 22 1011.7
20260903213025 101 236 1.7 6.1 0.00 0.00 0.00 23 1011.8
20260903211526 100 259 0.0 6.1 0.00 0.00 0.00 24 1012.0
20260903210025 100 138 3.5 7.0 0.00 0.00 0.00 23 1012.1
20260903204518 100 64 0.9 7.0 0.00 0.00 0.00 23 1012.3
20260903203033 100 159 4.3 7.8 0.00 0.00 0.00 23 1012.5
20260903201532 100 185 2.6 7.0 0.00 0.00 0.00 25 1012.5
20260903200027 99 163 4.3 7.8 0.00 0.00 0.00 24 1012.6
20260903194526 98 112 3.5 7.8 0.00 0.00 0.00 25 1012.9
20260903193026 98 209 2.6 7.8 0.00 0.00 0.00 27 1013.0
20260903191509 98 213 2.6 6.1 0.00 0.00 0.00 28 1013.0
20260903190007 98 191 1.7 7.0 0.00 0.00 0.00 29 1013.2
20260903184511 98 196 1.7 3.5 0.00 0.00 0.00 26 1013.4
20260903183003 97 24 0.0 5.2 0.00 0.00 0.00 31 1013.5
20260903181502 96 12 0.0 4.3 0.00 0.00 0.00 34 1013.8
20260903180007 95 302 0.9 4.3 0.00 0.00 0.00 33 1013.9
20260903174517 94 360 2.6 5.2 0.00 0.00 0.00 35 1014.1
20260903173018 92 155 1.7 6.1 0.00 0.00 0.00 34 1014.1
20260903171504 91 292 1.7 7.0 0.00 0.00 0.00 38 1014.3
20260903170005 90 240 3.5 7.0 0.00 0.00 0.00 39 1014.3
20260903164510 88 202 3.5 7.8 0.00 0.00 0.00 41 1014.4
20260903163013 87 360 1.7 7.0 0.00 0.00 0.00 43 1014.3
20260903161504 86 184 1.7 7.0 0.00 0.00 0.00 44 1014.2
20260903160008 85 208 2.6 5.2 0.00 0.00 0.00 47 1014.1
20260903154513 85 217 2.6 7.8 0.00 0.00 0.00 46 1014.4
20260903153013 84 239 2.6 7.0 0.00 0.00 0.00 47 1014.2
20260903151523 82 248 2.6 7.0 0.00 0.00 0.00 50 1014.1
20260903150009 81 258 4.3 11.3 0.00 0.00 0.00 52 1014.0